Weather History for Heber, UT

Change the Weather History Date:

Tuesday, November 20, 2012

  Actual Average (KPVU) Record (KPVU)
Temperature  
Mean Temperature 44 °F -  
Max Temperature 59 °F 43 °F 60 °F (1996)
Min Temperature 28 °F 27 °F 17 °F (2000)
Degree Days  
Heating Degree Days 22    
Moisture  
Dew Point 30 °F    
Average Humidity 68    
Maximum Humidity 100    
Minimum Humidity 31    
Precipitation  
Precipitation 0.00 in - - ()
Sea Level Pressure  
Sea Level Pressure 30.20 in    
Wind  
Wind Speed 2 mph (South)    
Max Wind Speed 10 mph    
Max Gust Speed -    
Visibility 10 miles    
Events      
Averages and records for this station are not official NWS values.
T = Trace of Precipitation, MM = Missing Value Source: NWS Daily Summary

Daily Weather History Graph

Daily Weather History Graph

Search for Another Location

Airport:

Trip Planner

Search our weather history database for the weather conditions in past years. The results will help you decide how hot, cold, wet, or windy it might be!

Date:

Astronomy

Nov. 20, 2012 Rise Set
Actual Time 7:18 AM MST 5:04 PM MST
Civil Twilight 6:48 AM MST 5:33 PM MST
Nautical Twilight 6:15 AM MST 6:07 PM MST
Astronomical Twilight 5:42 AM MST 6:39 PM MST
Moon 12:53 PM MST (11/20) No Moon Set
Length of Visible Light 10h 45m
Length of Day
9h 45m
First Quarter, 52% of the Moon is Illuminated
Nov 20
First Quarter
Nov 28
Full
Dec 6
Last Quarter
Dec 13
New
Dec 19
First Quarter

Hourly Weather History & Observations

Time (MST) Temp. Windchill Dew Point Humidity Pressure Visibility Wind Dir Wind Speed Gust Speed Precip Events Conditions
12:15 AM 30.2 °F - 28.4 °F 93% 30.30 in 10.0 mi Calm Calm - N/A   Clear
12:35 AM 30.2 °F - 30.2 °F 100% 30.30 in 10.0 mi Calm Calm - N/A   Clear
12:55 AM 30.2 °F - 30.2 °F 100% 30.30 in 10.0 mi Calm Calm - N/A   Clear
1:15 AM 30.2 °F - 28.4 °F 93% 30.30 in 10.0 mi Calm Calm - N/A   Clear
1:35 AM 28.4 °F - 26.6 °F 93% 30.30 in 10.0 mi Calm Calm - N/A   Clear
5:15 AM 28.4 °F - 26.6 °F 93% 30.28 in 10.0 mi Calm Calm - N/A   Clear
5:35 AM 28.4 °F - 26.6 °F 93% 30.28 in 10.0 mi Calm Calm - N/A   Clear
5:55 AM 28.4 °F - 26.6 °F 93% 30.28 in 10.0 mi Calm Calm - N/A   Clear
6:15 AM 28.4 °F - 26.6 °F 93% 30.28 in 10.0 mi Calm Calm - N/A   Clear
6:35 AM 28.4 °F - 26.6 °F 93% 30.29 in 10.0 mi Calm Calm - N/A   Clear
6:55 AM 28.4 °F - 28.4 °F 100% 30.28 in 10.0 mi Calm Calm - N/A   Clear
7:15 AM 28.4 °F - 26.6 °F 93% 30.28 in 10.0 mi Calm Calm - N/A   Clear
7:35 AM 28.4 °F - 26.6 °F 93% 30.28 in 10.0 mi Calm Calm - N/A   Clear
7:55 AM 28.4 °F - 28.4 °F 100% 30.29 in 10.0 mi Calm Calm - N/A   Clear
8:15 AM 30.2 °F - 30.2 °F 100% 30.29 in 10.0 mi Calm Calm - N/A   Clear
8:35 AM 32.0 °F - 30.2 °F 93% 30.29 in 10.0 mi Calm Calm - N/A   Clear
8:55 AM 32.0 °F - 32.0 °F 100% 30.29 in 10.0 mi Calm Calm - N/A   Clear
9:15 AM 32.0 °F - 32.0 °F 100% 30.29 in 10.0 mi Calm Calm - N/A   Clear
9:35 AM 33.8 °F - 32.0 °F 93% 30.28 in 10.0 mi Calm Calm - N/A   Clear
10:15 AM 39.2 °F - 32.0 °F 75% 30.27 in 10.0 mi Calm Calm - N/A   Clear
10:35 AM 41.0 °F 38.0 °F 33.8 °F 76% 30.26 in 10.0 mi WSW 4.6 mph - N/A   Clear
11:15 AM 44.6 °F - 33.8 °F 66% 30.25 in 10.0 mi Calm Calm - N/A   Clear
11:35 AM 46.4 °F - 32.0 °F 57% 30.23 in 10.0 mi Calm Calm - N/A   Clear
11:55 AM 48.2 °F - 33.8 °F 58% 30.22 in 10.0 mi Calm Calm - N/A   Clear
12:15 PM 51.8 °F - 32.0 °F 47% 30.20 in 10.0 mi Calm Calm - N/A   Clear
12:35 PM 53.6 °F - 30.2 °F 41% 30.18 in 10.0 mi SSW 10.4 mph - N/A   Clear
12:55 PM 55.4 °F - 26.6 °F 33% 30.18 in 10.0 mi South 9.2 mph - N/A   Clear
1:15 PM 59.0 °F - 28.4 °F 31% 30.16 in 10.0 mi SSW 5.8 mph - N/A   Clear
1:35 PM 59.0 °F - 28.4 °F 31% 30.15 in 10.0 mi South 5.8 mph - N/A   Clear
1:55 PM 59.0 °F - 28.4 °F 31% 30.14 in 10.0 mi South 4.6 mph - N/A   Clear
2:15 PM 59.0 °F - 30.2 °F 34% 30.14 in 10.0 mi West 5.8 mph - N/A   Clear
2:35 PM 59.0 °F - 28.4 °F 31% 30.13 in 10.0 mi WSW 5.8 mph - N/A   Clear
2:55 PM 59.0 °F - 28.4 °F 31% 30.13 in 10.0 mi WSW 3.5 mph - N/A   Clear
3:15 PM 57.2 °F - 28.4 °F 33% 30.12 in 10.0 mi SW 4.6 mph - N/A   Clear
4:15 PM 53.6 °F - 30.2 °F 41% 30.13 in 10.0 mi East 3.5 mph - N/A   Clear
4:35 PM 51.8 °F - 32.0 °F 47% 30.13 in 10.0 mi Calm Calm - N/A   Clear
4:55 PM 51.8 °F - 32.0 °F 47% 30.13 in 10.0 mi ESE 3.5 mph - N/A   Clear
5:15 PM 50.0 °F - 32.0 °F 50% 30.13 in 10.0 mi East 5.8 mph - N/A   Clear
5:55 PM 46.4 °F 45.2 °F 32.0 °F 57% 30.13 in 10.0 mi SE 3.5 mph - N/A   Clear
6:15 PM 46.4 °F 41.9 °F 32.0 °F 57% 30.13 in 10.0 mi SE 9.2 mph - N/A   Clear
6:35 PM 48.2 °F - 32.0 °F 54% 30.13 in 10.0 mi SSE 8.1 mph - N/A   Clear
6:55 PM 48.2 °F - 32.0 °F 54% 30.13 in 10.0 mi SSE 9.2 mph - N/A   Clear
7:15 PM 46.4 °F 42.9 °F 30.2 °F 53% 30.13 in 10.0 mi SSE 6.9 mph - N/A   Clear
7:35 PM 46.4 °F 42.4 °F 30.2 °F 53% 30.13 in 10.0 mi SSE 8.1 mph - N/A   Clear
7:55 PM 44.6 °F 40.2 °F 30.2 °F 57% 30.14 in 10.0 mi SSE 8.1 mph - N/A   Clear
8:15 PM 46.4 °F - 30.2 °F 53% 30.14 in 10.0 mi Calm Calm - N/A   Clear
8:35 PM 42.8 °F - 32.0 °F 66% 30.14 in 10.0 mi Calm Calm - N/A   Clear
8:55 PM 41.0 °F - 32.0 °F 70% 30.14 in 10.0 mi Calm Calm - N/A   Clear
9:15 PM 41.0 °F - 32.0 °F 70% 30.14 in 10.0 mi Calm Calm - N/A   Clear
9:35 PM 39.2 °F - 32.0 °F 75% 30.13 in 10.0 mi Calm Calm - N/A   Clear
9:55 PM 42.8 °F - 32.0 °F 66% 30.13 in 10.0 mi Calm Calm - N/A   Clear
10:15 PM 41.0 °F 39.0 °F 30.2 °F 65% 30.13 in 10.0 mi NW 3.5 mph - N/A   Clear
10:35 PM 41.0 °F - 30.2 °F 65% 30.12 in 10.0 mi Calm Calm - N/A   Clear
10:55 PM 37.4 °F - 30.2 °F 75% 30.12 in 10.0 mi Calm Calm - N/A   Clear
11:15 PM 37.4 °F - 30.2 °F 75% 30.12 in 10.0 mi Calm Calm - N/A   Clear
11:35 PM 35.6 °F 31.7 °F 30.2 °F 81% 30.12 in 10.0 mi SW 4.6 mph - N/A   Clear
11:55 PM 37.4 °F - 30.2 °F 75% 30.12 in 10.0 mi Calm Calm - N/A   Clear